Flag for Germany Weather past 2 weeks in Bayreuth, Bavaria, Germany

Now
65 °F

Passing clouds.


Feels Like: 65 °F
Forecast: 48 / 71 °F
Wind: 3 mph from North

Location: Grafenwoehr

Current Time: Apr 26, 2015 at 7:42:52 PM

Latest Report: Apr 26, 2015 at 6:58 PM


Visibility: N/A

Pressure: 29.70 "Hg

Humidity: 58%

Dew point: 49 °F

Location of BayreuthLocation

Historic Weather in Bayreuth — Graph

°F

Bayreuth temperature yesterday

Maximum temperature yesterday: 64 °F (at 1:04 PM)
Minimum temperature yesterday: 32 °F (at 5:58 AM)
Average temperature yesterday: 51 °F

Past Weeks' High & Low Weather Summary

 TemperatureHumidityPressure
High73 °F (Apr 15, 4:58 PM)100% (Apr 13, 2:58 AM)30.45 "Hg (Apr 13, 2:58 AM)
Low24 °F (Apr 19, 6:58 AM)21% (Apr 21, 6:58 PM)29.71 "Hg (Apr 26, 5:58 PM)
Average49 °F66%30.13 "Hg
* Reported Apr 11 5:58 PM — Apr 26 5:58 PM, Bayreuth, Weather by CustomWeather, © 2015

Note: Actual official high and low records may vary slightly from our data, if they occured in-between our weather recording intervals... More about our weather records

Advertising

Bayreuth weather history for previous 24 hours

 ConditionsComfort  
Time TempWeatherWind HumidityBarometerVisibility
5:58 PM
Sun, Apr 26
66 °FPartly sunny.3 mph49%29.71 "HgN/A
5:00 PM66 °FLight rain. Partly sunny.5 mph52%29.73 "HgN/A
4:58 PM66 °FPartly sunny.3 mph52%29.72 "HgN/A
4:01 PM64 °FLight rain. Passing clouds.5 mph56%29.75 "HgN/A
3:51 PM64 °FPassing clouds.3 mph56%29.75 "HgN/A
2:58 PM63 °FSunny.2 mph68%29.77 "HgN/A
2:00 PM55 °FThunderstorms. More clouds than sun.3 mph82%29.80 "Hg3 mi
12:58 PM61 °FPartly sunny.6 mph63%29.79 "HgN/A
11:58 AM60 °FPassing clouds.8 mph66%29.80 "HgN/A
10:58 AM57 °FBroken clouds.8 mph77%29.82 "HgN/A
10:50 AM57 °FCloudy.7 mph82%29.82 "HgN/A
10:03 AM55 °FCloudy.3 mph88%29.83 "HgN/A
9:58 AM55 °FMostly cloudy.3 mph88%29.83 "HgN/A
9:02 AM54 °FLow clouds.2 mph94%29.83 "HgN/A
8:58 AM54 °FMostly cloudy.2 mph94%29.83 "HgN/A
8:01 AM52 °FMostly cloudy.2 mph100%29.83 "HgN/A
7:04 AM52 °FMostly cloudy.2 mph94%29.83 "HgN/A
7:02 AM52 °FMostly cloudy.2 mph94%29.83 "HgN/A
6:53 AM52 °FDrizzle. Mostly cloudy.1 mph94%29.83 "HgN/A
5:58 AM52 °FMostly cloudy.1 mph96%29.81 "HgN/A
5:04 AM52 °FMostly cloudy.2 mph94%29.83 "HgN/A
3:58 AM52 °FRain. Fog.1 mph94%29.83 "Hg6 mi
3:51 AM52 °FLight rain. Mostly cloudy.1 mph94%29.83 "HgN/A
2:58 AM52 °FOvercast.1 mph94%29.83 "HgN/A
1:58 AM54 °FOvercast.2 mph88%29.82 "HgN/A
12:58 AM53 °FOvercast.3 mph91%29.83 "HgN/A
11:58 PM
Sat, Apr 25
53 °FOvercast.3 mph89%29.83 "HgN/A
11:04 PM54 °FPassing clouds.3 mph88%29.85 "HgN/A
10:58 PM54 °FPassing clouds.3 mph88%29.84 "HgN/A
9:58 PM55 °FMostly cloudy.No wind82%29.85 "HgN/A
8:58 PM57 °FOvercast.7 mph72%29.86 "HgN/A
7:58 PM57 °FScattered clouds.5 mph72%29.87 "HgN/A
Weather by CustomWeather, © 2015

See weather overviewHow to use our weather pages